Location: Saratoga Springs
(43.0831°N, 73.7850°W)
Time: 05:24:36
(UTC-04:00)

Vanguard 2 - Pass Details

Date: 20 April 2024
Orbit: 553 x 2914 km, 32.9° (Epoch: 17 May)

Event Time Altitude Azimuth Distance (km) Brightness Sun altitude
Rises 03:04:38 0° 238° (WSW) 5,892 - -27.6°
Reaches altitude 10° 03:08:17 10° 234° (SW) 5,129 - -27.2°
Exits shadow 03:16:20 36° 214° (SW) 3,779 10.4 -26.3°
Maximum altitude 03:23:34 53° 164° (SSE) 3,348 10.4 -25.4°
Drops below altitude 10° 03:40:01 10° 94° (E) 5,491 12.4 -23.4°
Sets 03:44:04 0° 90° (E) 6,318 12.9 -22.8°
